ELECTRON KICK STAGE R/B, 45728

Orbit data source: Space-Track

ELECTRON KICK STAGE R/B, 45728 is space debris in SSO originally from a launch on Sat, 13 Jun 2020 UTC launched from the Rocket Lab Launch Complex (RLLC). Debris objects in space refer to the collection of defunct objects orbiting the Earth. Examples of debris include non-operational satellites, rocket bodies, and fragments generated from explosions, collisions, or faulty payload assembly.

Loading next visibility...
Identifier
45728, 2020-037F
Orbit
SSO
Country
Flag of USUS
Related business
Manufacturer
Rocket Lab
Mission
Spacecraft
Bus & Motor
KICK STAGE, CURIE
Mass
50 kg wet, 50 kg dry
Launch date (UTC)
2020-06-13 (6 years ago)
Launch vehicle
Unknown
Launch site
Rocket Lab Launch Complex (RLLC)
Object type
Payload
Rocket body
Debris
Shape & HBR
Trunc Cone, 0.7 m
Radar Cross Section
0.760 m², Large (>1 m²)

Expand to show TLE details & history
Last TLE update: 2 days ago

TLE from 2 days ago
0 ELECTRON KICK STAGE R/B
1 45728U 20037F   26171.29834987  .00006783  00000-0  32157-3 0  9990
2 45728  97.7591  15.1624 0007725 120.3387 239.8611 15.19617135118672
Epoch: 2026-06-20T07:09Z
TLE epoch observation values (Epoch: 2026-06-20T07:09:37.428Z)
Latitude
-0.00012°
Longitude
-0.75851°
Altitude
512.751 km
Speed
7.606 km/s
True Right ascension
01h 00m 38s
True Declination
0° 00' 00"
Sunlit
Object was in daylight at epoch
Visualization orbit readout
Latitude
Unknown
Longitude
Unknown
Altitude
Unknown
Speed
Unknown
Apparent Right ascension
Unknown
Apparent Declination
Unknown
Sunlit
N/A
Visualization observer readout
Local Sidereal Time
21:29:44
Azimuth
Unknown
Elevation
Unknown
Doppler factor
Unknown
Orbital elements
Apogee altitude
509.295 km
Perigee altitude
498.662 km
Semi-major axis
6,882.116 km
Eccentricity
0.00077
Inclination
97.7591°
RAAN
15.1624°
Arg. of periapsis
120.3387°
True anomaly
239.78458°
Mean anomaly
239.8611°
Eccentric anomaly
239.82284°
Mean motion
3.80155 °/min
Orbital period
94.7 mins
BSTAR
0.00032157
Loading maneuver chart data...
Computing Atmospheric mass density...
Loading historical data...
Loading historical data...
Loading historical data...
Loading historical data...
Loading historical data...
Loading historical data...
Loading historical data...

Documentation

Showing up to 5 results
|